Content
SEND FEEDBACK

Daily
Averages
Monthly
Summary
United States of America

SOUTHPORT, NORTH CAROLINA


Home > North America > United States > North Carolina
Elevation: 38 feet     Latitude: 34 00N     Longitude: 078 01W

WEATHER
 
SELECT A DAY
Number of Records: 136,694;   Date Range: 8/21/01 - 8/30/14
 
SHARE

PRINT THIS DATA

[ ← Previous Day ]
WEATHER ALMANAC - FEBRUARY 22, 2013
[ Next Day → ]
[ °C ]   °F
Weather ElementAverageHighLow
Temperature45.6 °F50.2 °F (11:35 pm)41 °F (6:15 am)
Dewpoint39.6 °F50 °F (11:35 pm)28 °F (6:55 am)
Humidity80.6 %99 % (10:35 pm)59 % (6:55 am)
Barometer30.20 in30.31 in (5:35 am)30.06 in (11:55 pm)
Wind Speed7.3 mph11.5 mph (3:35 am)
Wind Gust19.6 mph (3:35 am)
Weather ElementAverage
Visibility8.7 mi
Wind DirectionENE (53.7 °)

Weather ElementTotal
Precipitation0.56 in
Heating Degree Days19.4 (Base 65)
Averaged from 71 records on February 22, 2013
WEATHER CONDITIONS BREAKOUT
WIND DIRECTION BREAKOUT
WEATHER BY HOUR - FEBRUARY 22, 2013
[ °C ]   °F
Local TimeTemperatureDewpointHumidityBarometerVisibilityWind DirectionWind SpeedGust SpeedPrecipitationEventsConditions
12:35 AM41.2 °F36.7 °F84 %30.21 in10.0 miENE (70°)3.5 mphClear
12:55 AM42.8 °F36.7 °F79 %30.22 in10.0 miNE (40°)3.5 mphClear
1:15 AM45.3 °F36.9 °F72 %30.22 in10.0 miEast (80°)4.6 mphClear
1:35 AM46.0 °F35.8 °F67 %30.23 in10.0 miENE (60°)3.5 mphClear
1:55 AM45.9 °F36.1 °F69 %30.23 in10.0 miENE (60°)5.8 mphClear
2:15 AM45.7 °F34.7 °F65 %30.23 in10.0 miENE (60°)5.8 mphClear
2:35 AM45.1 °F34.0 °F65 %30.24 in10.0 miNE (40°)5.8 mphClear
2:55 AM44.8 °F33.3 °F64 %30.24 in10.0 miNE (40°)5.8 mphClear
3:15 AM44.6 °F32.9 °F64 %30.24 in10.0 miNE (50°)10.4 mph18.4 mphClear
3:35 AM43.7 °F32.9 °F66 %30.24 in10.0 miNE (50°)11.5 mph19.6 mphClear
3:55 AM43.3 °F32.9 °F67 %30.26 in10.0 miNE (40°)10.4 mph17.3 mphClear
4:15 AM42.8 °F32.2 °F66 %30.27 in10.0 miNE (40°)11.5 mph16.1 mphClear
4:35 AM41.9 °F32.9 °F70 %30.28 in10.0 miNE (40°)5.8 mphClear
4:55 AM41.5 °F32.0 °F69 %30.28 in10.0 miNE (50°)9.2 mphClear
5:15 AM41.5 °F29.3 °F62 %30.29 in10.0 miNE (40°)5.8 mphClear
5:35 AM41.4 °F28.2 °F60 %30.31 in10.0 miNE (40°)6.9 mphClear
5:55 AM41.2 °F28.4 °F60 %30.31 in10.0 miNE (40°)8.1 mphClear
6:15 AM41.0 °F29.3 °F63 %30.30 in10.0 miNE (50°)5.8 mphClear
6:35 AM41.0 °F30.2 °F65 %30.29 in10.0 miEast (80°)6.9 mphClear
6:55 AM41.4 °F28.0 °F59 %30.29 in10.0 miNE (50°)10.4 mph16.1 mphClear
7:15 AM41.4 °F28.4 °F60 %30.28 in10.0 miENE (60°)10.4 mph16.1 mphClear
7:35 AM41.7 °F29.1 °F61 %30.25 in10.0 miENE (70°)9.2 mph16.1 mphClear
7:55 AM42.1 °F29.8 °F62 %30.26 in10.0 miENE (70°)11.5 mph17.3 mphClear
8:15 AM42.8 °F30.2 °F61 %30.27 in10.0 miENE (70°)8.1 mph18.4 mphClear
8:35 AM43.2 °F31.3 °F63 %30.27 in10.0 miENE (70°)6.9 mphClear
8:55 AM43.3 °F32.0 °F64 %30.27 in10.0 miEast (90°)6.9 mphClear
9:15 AM43.2 °F34.9 °F73 %30.28 in10.0 miEast (80°)6.9 mphRainLight Rain
9:35 AM42.8 °F37.0 °F80 %30.26 in7.0 miEast (90°)9.2 mph0.01 inRainLight Rain
9:55 AM43.2 °F38.5 °F84 %30.27 in10.0 miENE (70°)9.2 mph0.01 inRainRain
10:15 AM43.9 °F37.9 °F80 %30.27 in10.0 miEast (80°)6.9 mphDrizzle
10:35 AM44.6 °F39.2 °F81 %30.26 in10.0 miEast (80°)8.1 mphLight Drizzle
10:55 AM45.0 °F39.9 °F82 %30.26 in10.0 miEast (80°)8.1 mphRainLight Rain
11:15 AM44.8 °F40.5 °F85 %30.25 in10.0 miEast (80°)6.9 mph0.01 inRainLight Rain
11:35 AM45.7 °F41.9 °F87 %30.24 in7.0 miENE (70°)6.9 mph0.02 inRainRain
11:55 AM46.0 °F41.2 °F83 %30.24 in10.0 miENE (60°)8.1 mph0.02 inMostly Cloudy
12:15 PM46.2 °F40.8 °F81 %30.24 in10.0 miNE (40°)8.1 mphMostly Cloudy
12:35 PM46.4 °F40.8 °F81 %30.23 in10.0 miNE (50°)11.5 mphLight Drizzle
12:55 PM46.6 °F41.4 °F82 %30.22 in10.0 miNE (50°)6.9 mphLight Drizzle
1:15 PM46.6 °F41.5 °F83 %30.20 in10.0 miENE (60°)10.4 mphRainLight Rain
1:35 PM46.6 °F41.5 °F83 %30.19 in10.0 miENE (60°)6.9 mph16.1 mphScattered Clouds
1:55 PM46.8 °F41.9 °F83 %30.18 in10.0 miENE (60°)10.4 mph16.1 mphScattered Clouds
2:15 PM46.9 °F42.3 °F84 %30.17 in10.0 miENE (60°)11.5 mph19.6 mphRainLight Rain
2:35 PM47.3 °F42.8 °F84 %30.16 in10.0 miENE (60°)10.4 mphMostly Cloudy
2:55 PM46.4 °F42.3 °F85 %30.16 in10.0 miNE (50°)8.1 mph16.1 mphMostly Cloudy
3:15 PM45.9 °F41.9 °F86 %30.16 in10.0 miNE (50°)11.5 mph19.6 mphMostly Cloudy
3:35 PM46.4 °F42.3 °F85 %30.16 in10.0 miENE (60°)6.9 mphMostly Cloudy
3:55 PM47.3 °F43.3 °F86 %30.16 in10.0 miENE (60°)6.9 mphOvercast
4:15 PM47.5 °F43.7 °F87 %30.16 in10.0 miNE (50°)8.1 mphMostly Cloudy
4:35 PM47.8 °F44.2 °F87 %30.15 in10.0 miNE (40°)8.1 mphMostly Cloudy
4:55 PM47.8 °F44.6 °F89 %30.14 in10.0 miNE (40°)8.1 mphOvercast
5:15 PM48.4 °F45.3 °F89 %30.14 in10.0 miNE (50°)5.8 mphMostly Cloudy
5:35 PM48.7 °F45.9 °F90 %30.13 in10.0 miENE (60°)8.1 mph16.1 mphMostly Cloudy
5:55 PM49.3 °F46.6 °F90 %30.14 in10.0 miNE (40°)6.9 mphMostly Cloudy
6:15 PM48.7 °F46.2 °F91 %30.14 in10.0 miNE (50°)5.8 mphMostly Cloudy
6:35 PM48.4 °F46.0 °F92 %30.13 in7.0 miENE (60°)6.9 mphScattered Clouds
6:55 PM47.8 °F46.4 °F95 %30.14 in5.0 miNE (40°)5.8 mphDrizzle
7:15 PM47.7 °F46.4 °F95 %30.14 in5.0 miNE (50°)8.1 mphDrizzle
7:35 PM47.7 °F46.8 °F97 %30.14 in5.0 miNE (50°)5.8 mph0.01 inDrizzle
7:55 PM47.7 °F46.8 °F97 %30.13 in4.0 miNE (40°)8.1 mph0.02 inDrizzle
8:15 PM47.8 °F47.1 °F97 %30.13 in5.0 miNE (50°)6.9 mph0.01 inDrizzle
8:35 PM47.8 °F47.3 °F98 %30.14 in5.0 miNE (40°)6.9 mph0.01 inRainLight Rain
8:55 PM47.5 °F46.8 °F97 %30.13 in5.0 miNE (50°)4.6 mph0.01 inDrizzle
9:15 PM47.7 °F47.1 °F98 %30.12 in5.0 miNE (50°)4.6 mph0.01 inDrizzle
9:35 PM47.8 °F47.3 °F98 %30.11 in7.0 miNE (40°)6.9 mph0.01 inLight Drizzle
9:55 PM47.8 °F47.3 °F98 %30.11 in5.0 miNNE (30°)4.6 mph0.01 inLight Drizzle
10:15 PM47.7 °F46.9 °F97 %30.10 in5.0 miNE (40°)8.1 mph0.01 inDrizzle
10:35 PM48.2 °F47.8 °F99 %30.10 in5.0 miNNE (30°)4.6 mph0.01 inOvercast
10:55 PM49.3 °F49.1 °F99 %30.08 in4.0 miENE (60°)4.6 mph0.02 inRainLight Rain
11:15 PM50.0 °F49.5 °F98 %30.07 in1.8 miNNE (30°)4.6 mph0.10 inRainHeavy Rain
11:35 PM50.2 °F50.0 °F99 %30.07 in7.0 miNNE (20°)5.8 mph0.11 inOvercast
11:55 PM50.2 °F50.0 °F99 %30.06 in4.0 miCalm0.15 inRainHeavy Rain
Hourly data recorded from KSUT, located miles away from Southport, North Carolina







STORIES FROM OUR PARTNERS